Other Public Products
Issued by NWS Grand Forks, ND

Home | Current Version | Previous Version | Graphics & Text | Print | Product List | Glossary On
Versions: 1 2 3 4 5 6 7 8 9 10 11 12 13 14 15 16 17 18 19 20 21 22 23 24 25 26 27 28 29 30 31 32 33 34 35 36 37 38 39 40 41 42 43 44 45 46 47 48 49 50
000
FPUS83 KFGF 250710
OPUFGF
PRAIRIE TO PINES WEATHER ROUNDUP
NATIONAL WEATHER SERVICE EASTERN NORTH DAKOTA/GRAND FORKS ND
200 AM CDT WED MAY 25 2016

 **SATELLITE DATA USED TO AUGMENT SKY COVER AT AUTOMATED STATIONS**
 *****  WEATHER ACROSS EASTERN NORTH DAKOTA  *****

CITY           SKY/WX    TMP DP  RH WIND       PRES   REMARKS
GRAND FORKS    MOCLDY    64  49  57 E10       29.87F
GRAND FORKS AF NOT AVBL
GRAND CITY NWS   N/A     63 N/A N/A SE14        N/A
BUXTON           N/A     64  51  62 NE6         N/A
DEVILS LAKE    MOCLDY    62  55  77 SE8       29.89F
FARGO          CLOUDY    66  50  56 E10       29.85F
WAHPETON ARPT  SUNNY     63  48  59 SE9       29.86S
$$

 *****  WEATHER ACROSS CENTRAL AND WESTERN NORTH DAKOTA  *****

CITY           SKY/WX    TMP DP  RH WIND       PRES   REMARKS
JAMESTOWN      NOT AVBL
BISMARCK       CLOUDY    63  52  67 SE8       29.87R
MINOT          CLOUDY    62  44  51 NE5       29.87S
MINOT AFB      DRIZZLE   60  44  56 S5        29.87S
GARRISON         N/A     57  53  86 NE6       29.89S
WILLISTON      CLOUDY    54  38  54 N8        29.87F
DICKINSON      CLOUDY    55  49  80 CALM      29.83F
HETTINGER      MOCLDY    50  44  80 CALM      29.88R
$$

 *****  OTHER OBSERVATIONS NORTHEAST NORTH DAKOTA  *****

CITY           SKY/WX    TMP DP  RH WIND       PRES   REMARKS
WALHALLA       FAIR      54  54 100 CALM      29.90F
LANGDON        FAIR      57  52  82 E7        29.91S
CAVALIER       FAIR      59  52  77 CALM      29.89F
GRAFTON        FAIR      59  54  82 E9        29.91S
CANDO          NOT AVBL
FORT TOTTEN      N/A     65  49  56 SE7       29.95S
ROLLA          PTSUNNY   55  45  67 N6        29.91F
RUGBY          FAIR      59  45  58 E12       29.87F
 ***** THE ABOVE OBSERVATIONS ARE NON NWS ARE NOT QUALITY
        CONTROLLED AND MAY MIS-REPORT RAIN FOR SNOW...
$$

 *****  OTHER OBSERVATIONS SOUTHEAST NORTH DAKOTA *****

CITY           SKY/WX    TMP DP  RH WIND       PRES   REMARKS
COOPERSTOWN    NOT AVBL
VALLEY CITY    FAIR      63  50  63 E10       29.88F
OAKES            N/A    N/A N/A N/A MISG        N/A
GWINNER        FAIR      64  54  68 NE8       29.84F
SHEYENNE NWR     N/A     60  51  71 E7        29.95S
BUFFALO          N/A     63  49  59 E12         N/A
WYNDMERE         N/A     63  52  67 SE7         N/A
 ***** THE ABOVE OBSERVATIONS ARE NON NWS ARE NOT QUALITY
       CONTROLLED AND MAY MIS-REPORT RAIN FOR SNOW...
$$

  *****  WEATHER ACROSS NORTHERN MINNESOTA  *****

CITY           SKY/WX    TMP DP  RH WIND       PRES   REMARKS
FLAG ISLAND    CLEAR     59  54  82 SE6       29.95S
WARROAD        CLEAR     55  52  88 CALM      29.96S
ROSEAU         CLEAR     57  52  82 SE7       29.94F
HALLOCK        HAZE      61  52  72 E7        29.89F VSB 3/4
THF RVR FALLS  PTCLDY    61  48  63 E12       29.93F
HALSTAD        NOT AVBL
FOSSTON        PTCLDY    55  46  71 E3        29.92F
BAUDETTE       CLEAR     52  50  93 SE5       29.96S
WASKISH        CLEAR     54  52  94 E5        29.96F
CROOKSTON      MOCLDY    63  52  67 SE8       29.90F
$$
  *****  WEATHER ACROSS CENTRAL AND WEST MINNESOTA  *****

CITY           SKY/WX    TMP DP  RH WIND       PRES   REMARKS
BEMIDJI        CLEAR     51  48  90 E5        29.94F
PARK RAPIDS    PTCLDY    60  52  74 E5        29.92F
WADENA         CLEAR     55  52  88 E3        29.91F
DETROIT LAKES  PTCLDY    63  52  67 SE8       29.91F
MOORHEAD       CLOUDY    64  54  68 E8        29.87S
FERGUS FALLS   CLEAR     64  52  63 E10       29.84S
ELBOW LAKE     FAIR      63  54  71 SE15G21   29.87F
MORRIS MN      CLOUDY    64  54  68 E14       29.86R
STAPLES        CLEAR     57  52  82 CALM      29.92F
WHEATON        CLOUDY    64  55  72 E10       29.87R
$$
  *****  WEATHER ELSEWHERE ACROSS MINNESOTA  *****

CITY           SKY/WX    TMP DP  RH WIND       PRES   REMARKS
DULUTH         FOG       51  50  96 E10       30.02S VSB 3/4
INTRNTL FALLS  CLEAR     50  49  96 SE5       29.97S
ELY            CLEAR     52  48  87 CALM      30.00F
CLOQUET        FOG       52  48  87 E5        30.02R VSB 1/2
BRAINERD       CLOUDY    56  54  93 VRB3      29.95R
HIBBING        CLOUDY    54  53  97 SE7       30.01R
ALEXANDRIA     CLOUDY    62  51  67 E12       29.91F
SAINT CLOUD    PTCLDY    63  53  70 E6        29.92R
MINNEAPOLIS    CLOUDY    68  58  70 E7        29.92R
$$

  *****  WEATHER ACROSS SOUTH DAKOTA  *****

CITY           SKY/WX    TMP DP  RH WIND       PRES   REMARKS
SIOUX FALLS    CLOUDY    69  62  78 SE13      29.82F
BROOKINGS      CLOUDY    66  60  81 SE10      29.84S
WATERTOWN      CLOUDY    67  52  58 SE6       29.84R
HURON          CLOUDY    69  62  78 SE9       29.76F THUNDER
SISSETON         N/A     61  51  70 CALM      29.84R
ABERDEEN       CLOUDY    65  51  60 NE8       29.80S
MITCHELL       CLOUDY    69  62  78 SE8       29.76F
PIERRE         LGT RAIN  57  54  89 NE18G28   29.73F
MOBRIDGE       LGT RAIN  61  53  75 SE21      29.81F
RAPID CITY     CLOUDY    53  49  86 SE5       29.83F
$$

  *****  SOME WEATHER IN NEARBY STATES *****

CITY           SKY/WX    TMP DP  RH WIND       PRES   REMARKS
GLASGOW MT     PTCLDY    49  43  80 NE9       29.88F
GREAT FALLS MT CLEAR     43  39  86 S10       29.90S
CHEYENNE WY    CLEAR     51  34  52 NW14      29.95R
SCOTTSBLUFF NE CLOUDY    49  45  86 CALM      29.90R
OMAHA NE       TSTM      69  64  84 W33G49    29.88R VSB 1
DES MOINES IA  CLOUDY    69  63  81 SE7       29.89F
DAVENPORT IA   CLEAR     68  62  81 CALM      29.98R
CHICAGO IL     CLOUDY    73  60  63 S12       29.99R
EAU CLAIRE WI  CLOUDY    57  55  93 CALM      29.95S
LA CROSSE WI   CLEAR     64  59  83 E3        29.95R
$$

  *****  SOME NATIONAL WEATHER *****

CITY           SKY/WX    TMP DP  RH WIND       PRES   REMARKS
LA GUARDIA NY  PTCLDY    64  57  78 CALM      29.99S
RALEIGH NC     PTCLDY    59  56  89 CALM      30.16R
ATLANTA GA     CLEAR     69  53  56 SW3       30.17S
NEW ORLEANS LA CLEAR     76  71  85 SE9       30.09F
OKLAHOMA CITY  CLOUDY    75  72  90 SE14      29.87F
ALBUQUERQUE NM CLEAR     66  12  12 CALM      30.06S
SALT LAKE CITY PTCLDY    55  39  54 S8        29.94S
LOS ANGELES CA PTCLDY    59  53  80 W10       30.05F
BOISE ID       MOCLDY    59  38  45 NW8       29.88S
SEATTLE WA     CLOUDY    56  51  84 CALM      30.04S
$$

*** WEATHER ACROSS MANITOBA...SASKATCHEWAN AND ONTARIO ***
                ***ONTARIO***

CITY           SKY/WX    TMP DP  RH WIND       PRES   REMARKS
GERALDTON      MOCLDY    45  41  87 E7        30.09S
THUNDER BAY    CLOUDY    52  48  87 E8        30.05F
SIOUX LOOKOUT  PTCLDY    48  46  93 SE5       30.00F
TORONTO        CLEAR     66  43  42 SW5       29.97S
BIG TROUT LK   CLOUDY    45  37  76 E7        30.07F
PICKLE LAKE    NOT AVBL
DRYDEN         FOG       52  50  93 E6        30.00R VSB 1/2
KENORA         CLEAR     52  50  93 SE7       29.97S
$$
                *** MANITOBA***

CITY           SKY/WX    TMP DP  RH WIND       PRES   REMARKS
BRANDON        PTCLDY    52  48  87 NE9       29.91S
DAUPHIN        MOCLDY    48  48 100 NW5       29.94S
ISLAND LAKE    MOCLDY    46  41  81 NE5       29.99F
PILOT MOUND      N/A     59  46  63 E7          N/A
THE PAS        CLEAR     45  43  93 SE5       29.96S
THOMPSON       NOT AVBL
WINNIPEG       PTCLDY    57  48  72 S8        29.92S
LYNN LAKE      CLOUDY    48  39  71 S6        29.95S
CHURCHILL      CLOUDY    32  27  80 SE12      30.13S WCI  23
GILLAM         CLOUDY    41  32  70 SE5       30.07F
$$
                ***SASKATCHEWAN***

CITY           SKY/WX    TMP DP  RH WIND       PRES   REMARKS
ESTEVAN        PTCLDY    43  36  75 NE6       29.88F
KINDERSLEY     PTCLDY    48  45  87 NE9       29.88S
LLOYDMINSTER   CLEAR     45  43  93 S7        29.89S
PRINCE ALBERT  CLEAR     43  41  93 NE5       29.92S
REGINA         CLEAR     43  39  87 SE7       29.89R
YORKTON        MOCLDY    48  46  93 E3        29.91R   C1F1C2F2C3F3C4F4C5F5C6F6C7F7C8F8C9F9CaFaCbFbCcFcCdFdCe!



USA.gov is the U.S. government's official web portal to all federal, state and local government web resources and services.